User: anonymous   Login
Location: Theydon Bois
(51.6750°N, 0.1050°E)
Time: 06:53:25
(UTC+01:00)
Language:

Lacrosse 4 Rocket - Orbit

View from above orbital plane
View from above orbital plane
View from above satellite
View from above satellite

Ground track
Ground track

The orbit data is extracted from the following two-line orbital elements,

1 26474U 00047B   18197.49291885 -.00000022  00000-0  91470-5 0  9997
2 26474  67.9922 207.5119 0060816 251.3021 108.1514 14.95706135974348
Epoch (UTC): 16 July 2018 11:49:48
Eccentricity: 0.0060816
inclination: 67.9922°
perigee height: 538 km
apogee height: 622 km
right ascension of ascending node: 207.5119°
argument of perigee: 251.3021°
revolutions per day: 14.95706135
mean anomaly at epoch: 108.1514°
orbit number at epoch: 97434

The dashed part of the orbit path shows where the satellite is in the earth's shadow,  

DLR